Time,TemperatureF,DewpointF,PressureIn,WindDirection,WindDirectionDegrees,WindSpeedMPH,WindSpeedGustMPH,Humidity,HourlyPrecipIn,Conditions,Clouds,dailyrainin,SoftwareType,DateUTC
2013-02-08 00:00:00,37.8,33.7,29.90,SW,217,1.0,1.0,85,0.00,,,0.00,Wunderground v.1.15,2013-02-08 08:00:00,
2013-02-08 00:10:00,37.8,33.7,29.90,SW,217,0.0,0.0,85,0.00,,,0.00,Wunderground v.1.15,2013-02-08 08:10:00,
2013-02-08 00:20:00,37.6,33.5,29.90,SW,217,0.0,1.0,85,0.00,,,0.00,Wunderground v.1.15,2013-02-08 08:20:00,
2013-02-08 00:30:00,37.5,33.4,29.90,SW,217,1.0,1.0,85,0.00,,,0.00,Wunderground v.1.15,2013-02-08 08:30:00,
2013-02-08 00:40:00,37.2,33.1,29.90,SW,217,1.0,1.0,85,0.00,,,0.00,Wunderground v.1.15,2013-02-08 08:40:00,
2013-02-08 00:50:00,36.8,32.7,29.89,SW,217,1.0,2.0,85,0.00,,,0.00,Wunderground v.1.15,2013-02-08 08:50:00,
2013-02-08 01:00:00,36.6,32.8,29.89,SW,217,1.0,1.0,86,0.00,,,0.00,Wunderground v.1.15,2013-02-08 09:00:00,
2013-02-08 01:10:00,36.3,32.5,29.89,SW,217,0.0,0.0,86,0.00,,,0.00,Wunderground v.1.15,2013-02-08 09:10:00,
2013-02-08 01:20:00,36.3,32.5,29.89,SW,217,0.0,0.0,86,0.00,,,0.00,Wunderground v.1.15,2013-02-08 09:20:00,
2013-02-08 01:30:00,36.5,32.7,29.88,SW,217,0.0,0.0,86,0.00,,,0.00,Wunderground v.1.15,2013-02-08 09:30:00,
2013-02-08 01:40:00,36.5,32.7,29.88,SW,217,0.0,0.0,86,0.00,,,0.00,Wunderground v.1.15,2013-02-08 09:40:00,
2013-02-08 01:50:00,36.3,32.8,29.88,SW,217,0.0,0.0,87,0.00,,,0.00,Wunderground v.1.15,2013-02-08 09:50:00,
2013-02-08 02:00:00,36.3,32.8,29.87,SW,217,0.0,0.0,87,0.00,,,0.00,Wunderground v.1.15,2013-02-08 10:00:00,
2013-02-08 02:10:00,36.5,33.0,29.87,SW,217,0.0,0.0,87,0.00,,,0.00,Wunderground v.1.15,2013-02-08 10:10:00,
2013-02-08 02:20:00,36.5,33.0,29.87,SW,217,0.0,0.0,87,0.00,,,0.00,Wunderground v.1.15,2013-02-08 10:20:00,
2013-02-08 02:30:00,36.6,33.4,29.86,SW,217,0.0,0.0,88,0.00,,,0.00,Wunderground v.1.15,2013-02-08 10:30:00,
2013-02-08 02:40:00,36.6,33.4,29.86,SW,217,0.0,0.0,88,0.00,,,0.00,Wunderground v.1.15,2013-02-08 10:40:00,
2013-02-08 02:50:00,36.5,33.3,29.85,SW,217,0.0,0.0,88,0.00,,,0.00,Wunderground v.1.15,2013-02-08 10:50:00,
2013-02-08 03:00:00,36.3,33.1,29.85,SW,217,0.0,0.0,88,0.00,,,0.00,Wunderground v.1.15,2013-02-08 11:00:00,
2013-02-08 03:10:00,36.3,33.1,29.85,SW,217,0.0,0.0,88,0.00,,,0.00,Wunderground v.1.15,2013-02-08 11:10:00,
2013-02-08 03:20:00,36.3,33.1,29.85,SW,217,0.0,0.0,88,0.00,,,0.00,Wunderground v.1.15,2013-02-08 11:20:00,
2013-02-08 03:30:00,36.2,33.0,29.85,SW,217,0.0,0.0,88,0.00,,,0.00,Wunderground v.1.15,2013-02-08 11:30:00,
2013-02-08 03:40:00,35.9,32.7,29.85,SW,217,0.0,0.0,88,0.00,,,0.00,Wunderground v.1.15,2013-02-08 11:40:00,
2013-02-08 03:50:00,35.6,32.4,29.85,SW,217,0.0,0.0,88,0.00,,,0.00,Wunderground v.1.15,2013-02-08 11:50:00,
2013-02-08 04:00:00,35.8,32.9,29.85,SW,217,0.0,0.0,89,0.00,,,0.00,Wunderground v.1.15,2013-02-08 12:00:00,
2013-02-08 04:10:00,35.5,32.6,29.85,SW,217,0.0,0.0,89,0.00,,,0.00,Wunderground v.1.15,2013-02-08 12:10:00,
2013-02-08 04:20:00,35.3,32.4,29.85,SW,217,0.0,1.0,89,0.00,,,0.00,Wunderground v.1.15,2013-02-08 12:20:00,
2013-02-08 04:30:00,35.3,32.4,29.85,SW,217,0.0,0.0,89,0.00,,,0.00,Wunderground v.1.15,2013-02-08 12:30:00,
2013-02-08 04:40:00,35.2,32.3,29.85,SW,217,0.0,0.0,89,0.00,,,0.00,Wunderground v.1.15,2013-02-08 12:40:00,
2013-02-08 04:50:00,34.9,32.0,29.85,SW,217,0.0,0.0,89,0.00,,,0.00,Wunderground v.1.15,2013-02-08 12:50:00,
2013-02-08 05:00:00,34.6,31.7,29.85,SW,217,0.0,0.0,89,0.00,,,0.00,Wunderground v.1.15,2013-02-08 13:00:00,
2013-02-08 05:10:00,34.4,31.5,29.85,SW,217,0.0,0.0,89,0.00,,,0.00,Wunderground v.1.15,2013-02-08 13:10:00,
2013-02-08 05:20:00,34.1,31.2,29.85,SW,217,0.0,0.0,89,0.00,,,0.00,Wunderground v.1.15,2013-02-08 13:20:00,
2013-02-08 05:30:00,34.1,31.2,29.85,SW,217,0.0,0.0,89,0.00,,,0.00,Wunderground v.1.15,2013-02-08 13:30:00,
2013-02-08 05:40:00,34.7,32.1,29.85,SW,217,0.0,0.0,90,0.00,,,0.00,Wunderground v.1.15,2013-02-08 13:40:00,
2013-02-08 05:50:00,35.0,32.4,29.86,SW,217,0.0,0.0,90,0.00,,,0.00,Wunderground v.1.15,2013-02-08 13:50:00,
2013-02-08 06:00:00,35.2,32.6,29.87,SW,217,0.0,0.0,90,0.00,,,0.00,Wunderground v.1.15,2013-02-08 14:00:00,
2013-02-08 06:10:00,35.2,32.6,29.87,SW,217,0.0,0.0,90,0.00,,,0.00,Wunderground v.1.15,2013-02-08 14:10:00,
2013-02-08 06:20:00,35.2,32.6,29.87,SW,217,0.0,0.0,90,0.00,,,0.00,Wunderground v.1.15,2013-02-08 14:20:00,
2013-02-08 06:30:00,35.2,32.6,29.88,SW,217,0.0,0.0,90,0.00,,,0.00,Wunderground v.1.15,2013-02-08 14:30:00,
2013-02-08 06:40:00,35.2,32.6,29.88,SW,217,0.0,0.0,90,0.00,,,0.00,Wunderground v.1.15,2013-02-08 14:40:00,
2013-02-08 06:50:00,35.3,32.7,29.88,SW,217,0.0,0.0,90,0.00,,,0.00,Wunderground v.1.15,2013-02-08 14:50:00,
2013-02-08 07:00:00,35.3,32.9,29.88,SW,217,0.0,0.0,91,0.00,,,0.00,Wunderground v.1.15,2013-02-08 15:00:00,
2013-02-08 07:10:00,35.3,32.9,29.88,SW,217,0.0,0.0,91,0.00,,,0.00,Wunderground v.1.15,2013-02-08 15:10:00,
2013-02-08 07:20:00,35.2,32.6,29.88,SW,217,0.0,0.0,90,0.00,,,0.00,Wunderground v.1.15,2013-02-08 15:20:00,
2013-02-08 07:30:00,35.0,32.6,29.88,SW,217,0.0,0.0,91,0.00,,,0.00,Wunderground v.1.15,2013-02-08 15:30:00,
2013-02-08 07:40:00,35.0,32.6,29.88,SW,217,0.0,0.0,91,0.00,,,0.00,Wunderground v.1.15,2013-02-08 15:40:00,
2013-02-08 07:50:00,35.6,33.2,29.89,SW,217,0.0,0.0,91,0.00,,,0.00,Wunderground v.1.15,2013-02-08 15:50:00,
2013-02-08 08:00:00,36.3,34.2,29.89,SW,217,0.0,1.0,92,0.00,,,0.00,Wunderground v.1.15,2013-02-08 16:00:00,
2013-02-08 08:10:00,36.9,34.8,29.89,SW,217,0.0,3.0,92,0.00,,,0.00,Wunderground v.1.15,2013-02-08 16:10:00,
2013-02-08 08:20:00,37.2,35.1,29.90,SW,217,1.0,1.0,92,0.00,,,0.00,Wunderground v.1.15,2013-02-08 16:20:00,
2013-02-08 08:30:00,38.2,36.1,29.90,SW,217,0.0,0.0,92,0.00,,,0.00,Wunderground v.1.15,2013-02-08 16:30:00,
2013-02-08 08:40:00,39.9,37.8,29.90,SW,217,0.0,2.0,92,0.00,,,0.00,Wunderground v.1.15,2013-02-08 16:40:00,
2013-02-08 08:50:00,41.2,38.8,29.90,SW,217,1.0,2.0,91,0.00,,,0.00,Wunderground v.1.15,2013-02-08 16:50:00,
2013-02-08 09:00:00,41.8,38.8,29.90,SW,217,4.0,5.0,89,0.00,,,0.00,Wunderground v.1.15,2013-02-08 17:00:00,
2013-02-08 09:10:00,42.2,38.6,29.90,SW,224,4.0,4.0,87,0.00,,,0.00,Wunderground v.1.15,2013-02-08 17:10:00,
2013-02-08 09:20:00,42.9,38.7,29.91,SW,224,3.0,3.0,85,0.00,,,0.00,Wunderground v.1.15,2013-02-08 17:20:00,
2013-02-08 09:30:00,44.1,39.0,29.90,SW,224,3.0,6.0,82,0.00,,,0.00,Wunderground v.1.15,2013-02-08 17:30:00,
2013-02-08 09:40:00,45.7,39.6,29.90,SW,224,3.0,7.0,79,0.00,,,0.00,Wunderground v.1.15,2013-02-08 17:40:00,
2013-02-08 09:50:00,46.5,39.0,29.90,SW,226,3.0,4.0,75,0.00,,,0.00,Wunderground v.1.15,2013-02-08 17:50:00,
2013-02-08 10:00:00,47.6,39.4,29.90,SW,229,3.0,5.0,73,0.00,,,0.00,Wunderground v.1.15,2013-02-08 18:00:00,
2013-02-08 10:10:00,48.6,39.6,29.90,SW,230,3.0,3.0,71,0.00,,,0.00,Wunderground v.1.15,2013-02-08 18:10:00,
2013-02-08 10:20:00,49.1,39.4,29.90,West,270,5.0,5.0,69,0.00,,,0.00,Wunderground v.1.15,2013-02-08 18:20:00,
2013-02-08 10:30:00,49.8,40.0,29.91,West,278,4.0,7.0,69,0.00,,,0.00,Wunderground v.1.15,2013-02-08 18:30:00,
2013-02-08 10:40:00,49.9,39.8,29.91,WNW,284,5.0,5.0,68,0.00,,,0.00,Wunderground v.1.15,2013-02-08 18:40:00,
2013-02-08 10:50:00,50.5,40.3,29.91,WNW,284,3.0,3.0,68,0.00,,,0.00,Wunderground v.1.15,2013-02-08 18:50:00,
2013-02-08 11:00:00,51.6,40.6,29.90,WNW,284,3.0,3.0,66,0.00,,,0.00,Wunderground v.1.15,2013-02-08 19:00:00,
2013-02-08 11:10:00,52.0,40.6,29.90,WNW,284,2.0,2.0,65,0.00,,,0.00,Wunderground v.1.15,2013-02-08 19:10:00,
2013-02-08 11:20:00,52.6,39.9,29.89,WNW,284,2.0,2.0,62,0.00,,,0.00,Wunderground v.1.15,2013-02-08 19:20:00,
2013-02-08 11:30:00,53.6,40.0,29.89,WNW,288,3.0,3.0,60,0.00,,,0.00,Wunderground v.1.15,2013-02-08 19:30:00,
2013-02-08 11:40:00,53.1,40.0,29.89,WNW,292,3.0,3.0,61,0.00,,,0.00,Wunderground v.1.15,2013-02-08 19:40:00,
2013-02-08 11:50:00,53.6,40.0,29.88,WNW,296,4.0,11.0,60,0.00,,,0.00,Wunderground v.1.15,2013-02-08 19:50:00,
2013-02-08 12:00:00,54.1,40.1,29.88,NW,305,5.0,5.0,59,0.00,,,0.00,Wunderground v.1.15,2013-02-08 20:00:00,
2013-02-08 12:10:00,54.1,40.5,29.88,NW,312,4.0,4.0,60,0.00,,,0.00,Wunderground v.1.15,2013-02-08 20:10:00,
2013-02-08 12:20:00,55.3,40.3,29.87,NW,312,6.0,6.0,57,0.00,,,0.00,Wunderground v.1.15,2013-02-08 20:20:00,
2013-02-08 12:30:00,55.0,38.6,29.86,NW,313,7.0,7.0,54,0.00,,,0.00,Wunderground v.1.15,2013-02-08 20:30:00,
2013-02-08 12:40:00,55.0,38.6,29.86,NW,319,7.0,7.0,54,0.00,,,0.00,Wunderground v.1.15,2013-02-08 20:40:00,
2013-02-08 12:50:00,55.0,38.2,29.86,NW,319,5.0,6.0,53,0.00,,,0.00,Wunderground v.1.15,2013-02-08 20:50:00,
2013-02-08 13:00:00,57.3,40.8,29.85,NW,319,3.0,3.0,54,0.00,,,0.00,Wunderground v.1.15,2013-02-08 21:00:00,
2013-02-08 13:10:00,58.7,39.0,29.85,NW,319,2.0,5.0,48,0.00,,,0.00,Wunderground v.1.15,2013-02-08 21:10:00,
2013-02-08 13:20:00,58.6,37.9,29.84,NW,319,4.0,4.0,46,0.00,,,0.00,Wunderground v.1.15,2013-02-08 21:20:00,
2013-02-08 13:30:00,58.4,38.2,29.84,NW,318,4.0,4.0,47,0.00,,,0.00,Wunderground v.1.15,2013-02-08 21:30:00,
2013-02-08 13:40:00,58.7,38.0,29.84,NW,318,3.0,3.0,46,0.00,,,0.00,Wunderground v.1.15,2013-02-08 21:40:00,
2013-02-08 13:50:00,59.8,36.6,29.84,NW,318,4.0,5.0,42,0.00,,,0.00,Wunderground v.1.15,2013-02-08 21:50:00,
2013-02-08 14:00:00,59.8,34.8,29.83,NW,316,6.0,7.0,39,0.00,,,0.00,Wunderground v.1.15,2013-02-08 22:00:00,
2013-02-08 14:10:00,59.3,35.0,29.83,NW,312,7.0,7.0,40,0.00,,,0.00,Wunderground v.1.15,2013-02-08 22:10:00,
2013-02-08 14:20:00,60.2,35.1,29.83,NW,315,5.0,5.0,39,0.00,,,0.00,Wunderground v.1.15,2013-02-08 22:20:00,
2013-02-08 14:30:00,59.9,32.2,29.82,NW,315,5.0,5.0,35,0.00,,,0.00,Wunderground v.1.15,2013-02-08 22:30:00,
2013-02-08 14:40:00,60.9,33.0,29.82,NW,316,4.0,4.0,35,0.00,,,0.00,Wunderground v.1.15,2013-02-08 22:40:00,
2013-02-08 14:50:00,60.7,31.4,29.82,NW,313,5.0,5.0,33,0.00,,,0.00,Wunderground v.1.15,2013-02-08 22:50:00,
2013-02-08 15:00:00,59.9,31.4,29.82,NW,312,7.0,7.0,34,0.00,,,0.00,Wunderground v.1.15,2013-02-08 23:00:00,
2013-02-08 15:10:00,59.6,31.2,29.82,NW,315,7.0,7.0,34,0.00,,,0.00,Wunderground v.1.15,2013-02-08 23:10:00,
2013-02-08 15:20:00,59.3,29.4,29.82,NW,308,7.0,7.0,32,0.00,,,0.00,Wunderground v.1.15,2013-02-08 23:20:00,
2013-02-08 15:30:00,59.2,29.3,29.82,NW,319,8.0,12.0,32,0.00,,,0.00,Wunderground v.1.15,2013-02-08 23:30:00,
2013-02-08 15:40:00,59.2,31.5,29.82,NW,312,7.0,7.0,35,0.00,,,0.00,Wunderground v.1.15,2013-02-08 23:40:00,
2013-02-08 15:50:00,58.7,31.1,29.81,NW,316,8.0,8.0,35,0.00,,,0.00,Wunderground v.1.15,2013-02-08 23:50:00,
2013-02-08 16:00:00,58.9,31.3,29.82,NW,315,5.0,10.0,35,0.00,,,0.00,Wunderground v.1.15,2013-02-09 00:00:00,
2013-02-08 16:10:00,58.9,29.8,29.82,NW,315,7.0,7.0,33,0.00,,,0.00,Wunderground v.1.15,2013-02-09 00:10:00,
2013-02-08 16:20:00,58.1,27.6,29.82,NW,323,8.0,10.0,31,0.00,,,0.00,Wunderground v.1.15,2013-02-09 00:20:00,
2013-02-08 16:30:00,58.0,29.0,29.82,NW,316,6.0,8.0,33,0.00,,,0.00,Wunderground v.1.15,2013-02-09 00:30:00,
2013-02-08 16:40:00,57.6,29.4,29.82,NW,323,7.0,7.0,34,0.00,,,0.00,Wunderground v.1.15,2013-02-09 00:40:00,
2013-02-08 16:50:00,57.2,29.8,29.82,NW,313,7.0,7.0,35,0.00,,,0.00,Wunderground v.1.15,2013-02-09 00:50:00,
2013-02-08 17:00:00,56.5,29.8,29.82,NW,319,8.0,13.0,36,0.00,,,0.00,Wunderground v.1.15,2013-02-09 01:00:00,
2013-02-08 17:10:00,55.7,29.1,29.82,NW,311,8.0,8.0,36,0.00,,,0.00,Wunderground v.1.15,2013-02-09 01:10:00,
2013-02-08 17:20:00,55.1,28.6,29.82,NW,320,8.0,8.0,36,0.00,,,0.00,Wunderground v.1.15,2013-02-09 01:20:00,
2013-02-08 17:30:00,54.4,28.6,29.82,NW,312,6.0,10.0,37,0.00,,,0.00,Wunderground v.1.15,2013-02-09 01:30:00,
2013-02-08 17:40:00,53.8,28.8,29.82,NW,312,6.0,6.0,38,0.00,,,0.00,Wunderground v.1.15,2013-02-09 01:40:00,
2013-02-08 17:50:00,53.3,28.9,29.82,NW,315,5.0,7.0,39,0.00,,,0.00,Wunderground v.1.15,2013-02-09 01:50:00,
2013-02-08 18:00:00,52.9,29.2,29.82,NW,316,5.0,5.0,40,0.00,,,0.00,Wunderground v.1.15,2013-02-09 02:00:00,
2013-02-08 18:10:00,52.5,29.5,29.82,NW,315,5.0,5.0,41,0.00,,,0.00,Wunderground v.1.15,2013-02-09 02:10:00,
2013-02-08 18:20:00,52.2,29.8,29.82,NW,315,5.0,5.0,42,0.00,,,0.00,Wunderground v.1.15,2013-02-09 02:20:00,
2013-02-08 18:30:00,51.7,29.9,29.82,NW,316,6.0,6.0,43,0.00,,,0.00,Wunderground v.1.15,2013-02-09 02:30:00,
2013-02-08 18:40:00,51.4,30.2,29.82,NW,316,5.0,6.0,44,0.00,,,0.00,Wunderground v.1.15,2013-02-09 02:40:00,
2013-02-08 18:50:00,51.1,29.9,29.82,NW,319,4.0,11.0,44,0.00,,,0.00,Wunderground v.1.15,2013-02-09 02:50:00,
2013-02-08 19:00:00,51.0,29.8,29.83,NW,326,5.0,5.0,44,0.00,,,0.00,Wunderground v.1.15,2013-02-09 03:00:00,
2013-02-08 19:10:00,51.0,29.8,29.83,NNW,342,7.0,7.0,44,0.00,,,0.00,Wunderground v.1.15,2013-02-09 03:10:00,
2013-02-08 19:20:00,50.8,30.2,29.83,NW,323,6.0,6.0,45,0.00,,,0.00,Wunderground v.1.15,2013-02-09 03:20:00,
2013-02-08 19:30:00,50.5,30.5,29.83,NNW,328,4.0,4.0,46,0.00,,,0.00,Wunderground v.1.15,2013-02-09 03:30:00,
2013-02-08 19:40:00,50.1,30.1,29.83,NNW,343,4.0,4.0,46,0.00,,,0.00,Wunderground v.1.15,2013-02-09 03:40:00,
2013-02-08 19:50:00,49.6,30.2,29.84,NNW,339,2.0,2.0,47,0.00,,,0.00,Wunderground v.1.15,2013-02-09 03:50:00,
2013-02-08 20:00:00,49.2,29.8,29.84,NNW,339,2.0,2.0,47,0.00,,,0.00,Wunderground v.1.15,2013-02-09 04:00:00,
2013-02-08 20:10:00,48.9,30.1,29.84,NNW,339,2.0,2.0,48,0.00,,,0.00,Wunderground v.1.15,2013-02-09 04:10:00,
2013-02-08 20:20:00,48.6,29.8,29.84,NNW,339,2.0,3.0,48,0.00,,,0.00,Wunderground v.1.15,2013-02-09 04:20:00,
2013-02-08 20:30:00,48.3,29.5,29.84,NNW,339,2.0,2.0,48,0.00,,,0.00,Wunderground v.1.15,2013-02-09 04:30:00,
2013-02-08 20:40:00,48.0,29.7,29.84,NNW,339,2.0,3.0,49,0.00,,,0.00,Wunderground v.1.15,2013-02-09 04:40:00,
2013-02-08 20:50:00,47.7,29.5,29.84,NNW,339,2.0,3.0,49,0.00,,,0.00,Wunderground v.1.15,2013-02-09 04:50:00,
2013-02-08 21:00:00,47.6,29.4,29.84,NNW,339,1.0,1.0,49,0.00,,,0.00,Wunderground v.1.15,2013-02-09 05:00:00,
2013-02-08 21:10:00,47.3,29.6,29.84,NNW,339,0.0,0.0,50,0.00,,,0.00,Wunderground v.1.15,2013-02-09 05:10:00,
2013-02-08 21:20:00,46.7,29.0,29.84,NNW,339,0.0,0.0,50,0.00,,,0.00,Wunderground v.1.15,2013-02-09 05:20:00,
2013-02-08 21:30:00,46.1,29.0,29.84,NNW,339,0.0,0.0,51,0.00,,,0.00,Wunderground v.1.15,2013-02-09 05:30:00,
2013-02-08 21:40:00,45.4,28.8,29.84,NNW,339,0.0,0.0,52,0.00,,,0.00,Wunderground v.1.15,2013-02-09 05:40:00,
2013-02-08 21:50:00,44.9,28.3,29.85,NNW,339,0.0,0.0,52,0.00,,,0.00,Wunderground v.1.15,2013-02-09 05:50:00,
2013-02-08 22:00:00,44.6,28.5,29.85,NNW,339,0.0,0.0,53,0.00,,,0.00,Wunderground v.1.15,2013-02-09 06:00:00,
2013-02-08 22:10:00,44.2,28.1,29.85,NNW,339,0.0,0.0,53,0.00,,,0.00,Wunderground v.1.15,2013-02-09 06:10:00,
2013-02-08 22:20:00,43.8,28.2,29.85,NNW,339,0.0,2.0,54,0.00,,,0.00,Wunderground v.1.15,2013-02-09 06:20:00,
2013-02-08 22:30:00,43.5,27.9,29.85,NNW,339,0.0,0.0,54,0.00,,,0.00,Wunderground v.1.15,2013-02-09 06:30:00,
2013-02-08 22:40:00,43.2,27.7,29.85,NNW,339,0.0,0.0,54,0.00,,,0.00,Wunderground v.1.15,2013-02-09 06:40:00,
2013-02-08 22:50:00,42.9,27.4,29.85,NNW,339,1.0,1.0,54,0.00,,,0.00,Wunderground v.1.15,2013-02-09 06:50:00,
2013-02-08 23:00:00,42.6,28.0,29.85,NNW,339,1.0,3.0,56,0.00,,,0.00,Wunderground v.1.15,2013-02-09 07:00:00,
2013-02-08 23:10:00,42.5,28.3,29.85,NNW,339,2.0,2.0,57,0.00,,,0.00,Wunderground v.1.15,2013-02-09 07:10:00,
2013-02-08 23:20:00,42.3,28.6,29.85,NNW,339,1.0,2.0,58,0.00,,,0.00,Wunderground v.1.15,2013-02-09 07:20:00,
2013-02-08 23:30:00,42.2,28.9,29.85,NNW,337,3.0,7.0,59,0.00,,,0.00,Wunderground v.1.15,2013-02-09 07:30:00,
2013-02-08 23:40:00,42.1,28.8,29.85,NNW,337,3.0,3.0,59,0.00,,,0.00,Wunderground v.1.15,2013-02-09 07:40:00,
2013-02-08 23:50:00,41.9,29.0,29.85,NNW,337,3.0,3.0,60,0.00,,,0.00,Wunderground v.1.15,2013-02-09 07:50:00,